Hourly Weather Roundup
Issued by NWS Central Illinois

Home | Current Version | Previous Version | Text Only | Print | Product List | Glossary On
Versions: 1 2 3 4 5 6 7 8 9 10 11 12 13 14 15 16 17 18 19 20 21 22 23 24 25 26 27 28 29 30 31 32 33 34 35 36 37 38 39 40 41 42 43 44 45 46 47 48 49 50
000
NZUS43 KILX 242210
HWRILX

AREA WEATHER ROUNDUP
NATIONAL WEATHER SERVICE, LINCOLN IL
500 PM CDT FRI OCT 24 2014


CITY           SKY/WX    TMP DP  RH WIND       PRES   REMARKS
BLOOMINGTON    SUNNY     65  54  67 SW12      30.00F
CHAMPAIGN      SUNNY     66  54  65 W10       30.01S
DECATUR        SUNNY     62  55  77 SW8       30.02F
FLORA          MOSUNNY   69  51  53 W7        30.04S
GALESBURG      MOSUNNY   67  55  64 S12       29.95F
JACKSONVILLE   PTSUNNY   71  52  50 S8        29.98F
LACON          SUNNY     64  48  56 SW6       29.97R
LAWRENCEVILLE  PTSUNNY   70  52  52 SW10      30.03S
LITCHFIELD     MOSUNNY   68  48  48 S7        30.02F
$$


CITY           SKY/WX    TMP DP  RH WIND       PRES   REMARKS
LINCOLN        MOSUNNY   65  53  63 S5        29.97F
MACOMB         SUNNY     69  52  54 S12       29.98S
MATTOON        SUNNY     65  54  67 W9        30.02S
MT CARMEL AP   MOSUNNY   72  52  49 W9        30.03S
OLNEY-NOBLE AP MOSUNNY   68  52  56 W3        30.04R
PARIS          PTCLDY    68  53  57 W8        30.02S
PEORIA         MOSUNNY   65  51  60 S9        29.97F
PONTIAC        PTCLDY    69  48  46 SW8       29.98F
RANTOUL        CLEAR     69  51  51 SW10      30.00S
ROBINSON       MOSUNNY   72  53  50 W7        30.04R
SPRINGFIELD    MOSUNNY   69  50  50 S7        29.99F
TAYLORVILLE    MOSUNNY   64  52  63 S8        30.01F
$$

...REGIONAL REPORTS...


CITY           SKY/WX    TMP DP  RH WIND       PRES   REMARKS
CHICAGO O`HARE MOCLDY    65  46  50 SW8       29.95F
KANKAKEE       PTCLDY    68  45  43 W7        29.98F
MOLINE         CLOUDY    68  52  56 S10       29.92F
MOUNT VERNON   MOSUNNY   66  52  59 SW3       30.05F
PITTSFIELD     MOSUNNY   71  51  49 S8        29.98F
QUINCY         MOSUNNY   69  55  60 S8        29.96F
ROCKFORD       CLOUDY    63  50  62 S7        29.96F
$$


CITY           SKY/WX    TMP DP  RH WIND       PRES   REMARKS
BURLINGTON     MOSUNNY   66  58  75 S12       29.93F
CEDAR RAPIDS   LGT RAIN  64  59  83 SW12      29.90R
DES MOINES     CLOUDY    67  61  81 SW8       29.89S
KIRKSVILLE     PTSUNNY   71  61  70 S12       29.94F
OTTUMWA        CLOUDY    65  59  81 S8        29.91S
ST LOUIS       PTSUNNY   74  45  35 S6        30.02F
$$


CITY           SKY/WX    TMP DP  RH WIND       PRES   REMARKS
TERRE HAUTE    PTCLDY    68  52  56 W7        30.02S
EVANSVILLE     MOSUNNY   67  52  58 SW7       30.05S
INDIANAPOLIS   MOCLDY    63  51  65 SW8       30.01S
LAFAYETTE      PTCLDY    64  52  64 W7        30.00S
MADISON        MOCLDY    61  50  67 S8        29.92F
MILWAUKEE      MOCLDY    61  50  67 SW7       29.94F
$$





USA.gov is the U.S. government's official web portal to all federal, state and local government web resources and services.